This is the latest recevied weather packets stored in our database for station/object K5GHS-1. If no packets are shown the sender has not sent any weather packets the latest 10 day(s).
| Time | Temp. | Humidity | Pressure | Rain* | Wind** | Luminosity | Snow |
|---|---|---|---|---|---|---|---|
| 1777937744 | 26.11° C | 61% | 1004.5 hPa | 0 mm | - | 72 W/m² | - |
| 1777937441 | 26.11° C | 61% | 1004.6 hPa | 0 mm | - | 73 W/m² | - |
| 1777937138 | 26.11° C | 61% | 1004.6 hPa | 0 mm | - | 80 W/m² | - |
| 1777936836 | 26.11° C | 60% | 1004.5 hPa | 0 mm | - | 78 W/m² | - |
| 1777936532 | 26.11° C | 60% | 1004.6 hPa | 0 mm | - | 79 W/m² | - |
| 1777936228 | 26.67° C | 59% | 1004.9 hPa | 0 mm | - | 73 W/m² | - |
| 1777935925 | 27.22° C | 58% | 1004.7 hPa | 0 mm | - | 112 W/m² | - |
| 1777935624 | 27.22° C | 58% | 1004.5 hPa | 0 mm | - | 225 W/m² | - |
| 1777935320 | 27.78° C | 57% | 1004.7 hPa | 0 mm | - | 261 W/m² | - |
| 1777935017 | 27.78° C | 56% | 1004.9 hPa | 0 mm | - | 271 W/m² | - |
| 1777934714 | 27.22° C | 57% | 1004.9 hPa | 0 mm | - | 285 W/m² | - |
| 1777934411 | 27.22° C | 57% | 1005.1 hPa | 0 mm | - | 261 W/m² | - |
| 1777934108 | 27.78° C | 56% | 1005 hPa | 0 mm | - | 292 W/m² | - |
| 1777933804 | 27.78° C | 57% | 1004.7 hPa | 0 mm | - | 325 W/m² | - |
| 1777933501 | 27.78° C | 57% | 1004.7 hPa | 0 mm | - | 288 W/m² | - |
| 1777933198 | 27.78° C | 56% | 1004.8 hPa | 0 mm | - | 316 W/m² | - |
| 1777932895 | 27.78° C | 55% | 1005 hPa | 0 mm | - | 349 W/m² | - |
| 1777932592 | 28.33° C | 55% | 1005.3 hPa | 0 mm | - | 408 W/m² | - |
| 1777932289 | 28.33° C | 55% | 1005.1 hPa | 0 mm | - | 455 W/m² | - |
| 1777931985 | 27.78° C | 56% | 1005 hPa | 0 mm | - | 363 W/m² | - |
| 1777931682 | 27.78° C | 56% | 1005.2 hPa | 0 mm | - | 412 W/m² | - |
| 1777931379 | 27.78° C | 55% | 1005.2 hPa | 0 mm | - | 481 W/m² | - |
| 1777931075 | 27.22° C | 57% | 1005.5 hPa | 0 mm | - | 487 W/m² | - |
| 1777930772 | 27.22° C | 56% | 1005.7 hPa | 0 mm | - | 285 W/m² | - |
| 1777930468 | 27.22° C | 56% | 1005.6 hPa | 0 mm | - | 412 W/m² | - |
* Rain latest hour (hover to see other rain measurements)
** Current wind speed in m/s (hover to see current wind gust speed)